Hourly Weather Biskira

Today, 30 September, Wednesday

Time Temperature Precipitation Wind Pressure Humidity
00:00 +28°C° 0 mm 1 mps 753 mmHg 38%
01:00 +28°C° 0 mm 1 mps 753 mmHg 39%
02:00 +27°C° 0 mm 1 mps 752 mmHg 40%
03:00 +27°C° 0 mm 1 mps 752 mmHg 41%
04:00 +27°C° 0 mm 1 mps 752 mmHg 42%
05:00 +26°C° 0 mm 1 mps 752 mmHg 43%
06:00 +26°C° 0 mm 1 mps 752 mmHg 44%
07:00 +28°C° 0 mm 2 mps 752 mmHg 40%
08:00 +29°C° 0 mm 2 mps 752 mmHg 36%
09:00 +31°C° 0 mm 2 mps 752 mmHg 33%
10:00 +32°C° 0 mm 2 mps 752 mmHg 31%
11:00 +34°C° 0 mm 2 mps 751 mmHg 28%
12:00 +35°C° 0 mm 2 mps 751 mmHg 26%
13:00 +35°C° 0 mm 2 mps 750 mmHg 25%
14:00 +36°C° 0 mm 2 mps 749 mmHg 23%
15:00 +37°C° 0 mm 2 mps 748 mmHg 22%
16:00 +36°C° 0 mm 2 mps 748 mmHg 23%
17:00 +35°C° 0 mm 2 mps 748 mmHg 25%
18:00 +35°C° 0 mm 3 mps 748 mmHg 26%
19:00 +34°C° 0 mm 2 mps 749 mmHg 26%
20:00 +34°C° 0 mm 2 mps 749 mmHg 27%
21:00 +34°C° 0 mm 2 mps 749 mmHg 27%
22:00 +32°C° 0 mm 2 mps 749 mmHg 28%
23:00 +31°C° 0 mm 2 mps 748 mmHg 30%

Tomorrow, 1 October, Thursday

Time Temperature Precipitation Wind Pressure Humidity
00:00 +31°C° 0 mm 2 mps 748 mmHg 31%
01:00 +30°C° 0 mm 2 mps 748 mmHg 32%
02:00 +30°C° 0 mm 2 mps 747 mmHg 32%
03:00 +30°C° 0 mm 1 mps 747 mmHg 32%
04:00 +29°C° 0 mm 2 mps 747 mmHg 33%
05:00 +29°C° 0 mm 2 mps 747 mmHg 34%
06:00 +29°C° 0 mm 2 mps 747 mmHg 35%
07:00 +30°C° 0 mm 3 mps 747 mmHg 33%
08:00 +33°C° 0 mm 3 mps 748 mmHg 31%
09:00 +34°C° 0 mm 4 mps 748 mmHg 29%
10:00 +35°C° 0 mm 3 mps 747 mmHg 27%
11:00 +36°C° 0 mm 3 mps 747 mmHg 26%
12:00 +37°C° 0 mm 2 mps 747 mmHg 24%
13:00 +37°C° 0 mm 3 mps 747 mmHg 22%
14:00 +37°C° 0 mm 4 mps 746 mmHg 20%
15:00 +37°C° 0 mm 5 mps 746 mmHg 19%
16:00 +36°C° 0 mm 5 mps 746 mmHg 19%
17:00 +35°C° 0 mm 4 mps 746 mmHg 20%
18:00 +34°C° 0 mm 4 mps 746 mmHg 21%
19:00 +34°C° 0 mm 3 mps 746 mmHg 21%
20:00 +33°C° 0 mm 3 mps 747 mmHg 22%
21:00 +33°C° 0 mm 3 mps 747 mmHg 22%
22:00 +31°C° 0 mm 2 mps 747 mmHg 24%
23:00 +30°C° 0 mm 2 mps 747 mmHg 26%

Day after tomorrow, 2 October, Friday

Time Temperature Precipitation Wind Pressure Humidity
00:00 +30°C° 0 mm 2 mps 746 mmHg 28%
01:00 +29°C° 0 mm 3 mps 746 mmHg 38%
02:00 +28°C° 0 mm 4 mps 746 mmHg 49%
03:00 +27°C° 0 mm 4 mps 746 mmHg 59%
04:00 +27°C° 0 mm 4 mps 746 mmHg 62%
05:00 +27°C° 0 mm 4 mps 746 mmHg 65%
06:00 +26°C° 0 mm 4 mps 745 mmHg 68%
07:00 +27°C° 0 mm 4 mps 745 mmHg 61%
08:00 +29°C° 0 mm 5 mps 745 mmHg 55%
09:00 +30°C° 0 mm 5 mps 745 mmHg 48%
10:00 +32°C° 0 mm 5 mps 745 mmHg 44%
11:00 +33°C° 0 mm 6 mps 744 mmHg 39%
12:00 +35°C° 0 mm 6 mps 744 mmHg 34%
13:00 +35°C° 0 mm 6 mps 743 mmHg 33%
14:00 +36°C° 0 mm 5 mps 742 mmHg 32%
15:00 +36°C° 0 mm 5 mps 742 mmHg 31%
16:00 +36°C° 0 mm 5 mps 741 mmHg 32%
17:00 +35°C° 0 mm 5 mps 741 mmHg 33%
18:00 +34°C° 0 mm 5 mps 741 mmHg 35%
19:00 +34°C° 0 mm 5 mps 742 mmHg 35%
20:00 +34°C° 0 mm 5 mps 742 mmHg 35%
21:00 +33°C° 0 mm 5 mps 742 mmHg 35%
22:00 +32°C° 0 mm 5 mps 742 mmHg 34%
23:00 +30°C° 0 mm 6 mps 742 mmHg 34%

3 October, Saturday

Time Temperature Precipitation Wind Pressure Humidity
00:00 +29°C° 0 mm 7 mps 742 mmHg 33%
01:00 +29°C° 0 mm 7 mps 742 mmHg 33%
02:00 +28°C° 0 mm 8 mps 742 mmHg 34%
03:00 +28°C° 0 mm 8 mps 742 mmHg 34%
04:00 +27°C° 0 mm 8 mps 742 mmHg 36%
05:00 +27°C° 0 mm 8 mps 743 mmHg 38%
06:00 +26°C° 0 mm 7 mps 743 mmHg 39%
07:00 +27°C° 0 mm 8 mps 743 mmHg 38%
08:00 +28°C° 0 mm 8 mps 744 mmHg 37%
09:00 +29°C° 0 mm 8 mps 744 mmHg 35%
10:00 +31°C° 0 mm 9 mps 744 mmHg 35%
11:00 +31°C° 0 mm 10 mps 745 mmHg 34%
12:00 +32°C° 0 mm 11 mps 745 mmHg 33%
13:00 +32°C° 0 mm 11 mps 745 mmHg 32%
14:00 +31°C° 0 mm 11 mps 745 mmHg 31%
15:00 +31°C° 0 mm 11 mps 745 mmHg 30%
16:00 +29°C° 0 mm 10 mps 745 mmHg 29%
17:00 +28°C° 0 mm 9 mps 746 mmHg 29%
18:00 +27°C° 0 mm 8 mps 746 mmHg 29%
19:00 +26°C° 0 mm 7 mps 747 mmHg 29%
20:00 +26°C° 0 mm 7 mps 747 mmHg 29%
21:00 +26°C° 0 mm 7 mps 748 mmHg 29%
22:00 +24°C° 0 mm 7 mps 748 mmHg 29%
23:00 +24°C° 0 mm 7 mps 748 mmHg 29%

4 October, Sunday

Time Temperature Precipitation Wind Pressure Humidity
00:00 +24°C° 0 mm 7 mps 747 mmHg 29%
01:00 +24°C° 0 mm 6 mps 747 mmHg 28%
02:00 +23°C° 0 mm 6 mps 747 mmHg 27%
03:00 +23°C° 0 mm 5 mps 747 mmHg 26%
04:00 +23°C° 0 mm 5 mps 747 mmHg 27%
05:00 +22°C° 0 mm 4 mps 748 mmHg 28%
06:00 +22°C° 0 mm 4 mps 748 mmHg 30%
07:00 +23°C° 0 mm 4 mps 748 mmHg 29%
08:00 +25°C° 0 mm 3 mps 748 mmHg 29%
09:00 +27°C° 0 mm 3 mps 748 mmHg 28%
10:00 +28°C° 0 mm 3 mps 748 mmHg 29%
11:00 +28°C° 0 mm 2 mps 747 mmHg 29%
12:00 +29°C° 0 mm 2 mps 747 mmHg 30%
13:00 +30°C° 0 mm 3 mps 746 mmHg 28%
14:00 +30°C° 0 mm 3 mps 746 mmHg 26%
15:00 +32°C° 0 mm 4 mps 745 mmHg 25%
16:00 +30°C° 0 mm 3 mps 745 mmHg 25%
17:00 +30°C° 0 mm 3 mps 746 mmHg 26%
18:00 +29°C° 0 mm 3 mps 746 mmHg 26%
19:00 +29°C° 0 mm 4 mps 746 mmHg 26%
20:00 +28°C° 0 mm 4 mps 747 mmHg 27%
21:00 +28°C° 0 mm 5 mps 747 mmHg 27%
22:00 +27°C° 0 mm 6 mps 747 mmHg 30%
23:00 +26°C° 0 mm 8 mps 748 mmHg 33%

5 October, Monday

Time Temperature Precipitation Wind Pressure Humidity
00:00 +24°C° 0 mm 9 mps 748 mmHg 36%
01:00 +23°C° 0 mm 8 mps 748 mmHg 39%
02:00 +22°C° 0 mm 7 mps 748 mmHg 42%
03:00 +22°C° 0 mm 7 mps 748 mmHg 45%
04:00 +22°C° 0 mm 7 mps 748 mmHg 45%
05:00 +21°C° 0 mm 8 mps 748 mmHg 46%
06:00 +21°C° 0 mm 8 mps 748 mmHg 46%
07:00 +22°C° 0 mm 8 mps 749 mmHg 41%
08:00 +24°C° 0 mm 8 mps 749 mmHg 37%
09:00 +26°C° 0 mm 9 mps 749 mmHg 32%
10:00 +27°C° 0 mm 9 mps 749 mmHg 29%
11:00 +28°C° 0 mm 9 mps 748 mmHg 26%
12:00 +29°C° 0 mm 9 mps 748 mmHg 22%
13:00 +29°C° 0 mm 9 mps 748 mmHg 22%
14:00 +29°C° 0 mm 9 mps 748 mmHg 22%
15:00 +29°C° 0 mm 9 mps 748 mmHg 22%
16:00 +28°C° 0 mm 8 mps 748 mmHg 24%
17:00 +28°C° 0 mm 7 mps 748 mmHg 26%
18:00 +27°C° 0 mm 6 mps 749 mmHg 27%
19:00 +26°C° 0 mm 6 mps 749 mmHg 29%
20:00 +26°C° 0 mm 6 mps 750 mmHg 31%
21:00 +24°C° 0 mm 6 mps 750 mmHg 33%
22:00 +24°C° 0 mm 6 mps 750 mmHg 37%
23:00 +23°C° 0 mm 6 mps 750 mmHg 40%
Show more

We Need Your Consent

Meteoprog and our Service Providers may store and access personal data such as cookies, device identifiers or other similar technologies on your device and process such data to personalise content and ads, as well as provide social media features and to analyse the traffic.

  • Store and/or access information on your device

    Cookies, device identifiers or other information can be stored or accessed on your device for the purposes indicated above.

  • Personalised ads and content, ad and content measurement, audience insights, and products development

    Ads and content can be personalised based on a profile. More data can be added to better personalise ads and content. Ad and content performance can be measured. Insights about the audience who saw the ads and content can be derived. Such data can be used to develop or improve user’s experience, systems and software.

By clicking ‘I Agree’ you will allow the use of indicated cookies, device identifiers, web beacons or other similar technologies. Your settings can be changed in the browser on your device.

For certain purposes, legitimate interests may be relied on, rather than consent. You can read more about this in our Privacy and Cookie Policy.